SV2MJJ Weather Reports


time (UTC)temp
C
wind
direction
speed
KPH
gust
KPH
rain 1hr
cm
rain 24hr
cm
rain mn
cm
humidity
%
barometer
mb
20221003065119 18 300 0.0 4.8 0.00 0.00 0.00 66 1011.0
20221003065043 18 300 0.0 4.8 0.00 0.00 0.00 66 1011.0
20221003064546 18 300 1.6 6.4 0.00 0.00 0.00 65 1011.0
20221003064036 18 300 3.2 6.4 0.00 0.00 0.00 65 1011.0
20221003063603 18 300 0.0 4.8 0.00 0.00 0.00 64 1011.0
20221003063101 18 300 0.0 0.0 0.00 0.00 0.00 64 1011.1
20221003062559 18 300 0.0 0.0 0.00 0.00 0.00 64 1011.1
20221003062101 18 300 0.0 0.0 0.00 0.00 0.00 63 1011.1
20221003061601 17 300 0.0 0.0 0.00 0.00 0.00 64 1011.1
20221003061037 17 300 0.0 0.0 0.00 0.00 0.00 65 1011.0
20221003060542 17 300 0.0 0.0 0.00 0.00 0.00 65 1011.0
20221003060038 17 300 0.0 0.0 0.00 0.00 0.00 65 1010.9
20221003055607 17 300 0.0 0.0 0.00 0.00 0.00 65 1011.2
20221003055041 17 300 0.0 0.0 0.00 0.00 0.00 64 1011.1
20221003054541 16 300 0.0 0.0 0.00 0.00 0.00 65 1011.2
20221003054042 16 300 0.0 4.8 0.00 0.00 0.00 66 1011.0
20221003053543 16 300 0.0 4.8 0.00 0.00 0.00 67 1011.0
20221003053101 16 300 0.0 8.0 0.00 0.00 0.00 67 1010.9
20221003052541 16 300 0.0 8.0 0.00 0.00 0.00 67 1010.9
20221003052043 16 300 1.6 8.0 0.00 0.00 0.00 67 1010.8
20221003051543 16 300 3.2 9.7 0.00 0.00 0.00 66 1010.8
20221003051039 15 300 4.8 9.7 0.00 0.00 0.00 66 1010.9
20221003050535 15 300 4.8 9.7 0.00 0.00 0.00 66 1010.9
20221003050044 15 300 3.2 8.0 0.00 0.00 0.00 66 1010.9
20221003045544 15 300 3.2 8.0 0.00 0.00 0.00 66 1010.8
20221003045035 16 300 1.6 8.0 0.00 0.00 0.00 66 1010.8
20221003044536 16 300 4.8 8.0 0.00 0.00 0.00 66 1010.8
20221003044104 16 300 3.2 6.4 0.00 0.00 0.00 66 1010.8
20221003043558 15 300 1.6 6.4 0.00 0.00 0.00 67 1010.7
20221003043037 15 300 1.6 9.7 0.00 0.00 0.00 67 1010.7
20221003042546 15 300 1.6 9.7 0.00 0.00 0.00 67 1010.7
20221003042040 15 300 6.4 9.7 0.00 0.00 0.00 66 1010.7
20221003041600 16 300 4.8 9.7 0.00 0.00 0.00 66 1010.6
20221003041038 15 300 4.8 9.7 0.00 0.00 0.00 66 1010.5
20221003040553 15 300 3.2 12.9 0.00 0.00 0.00 66 1010.6
20221003040121 15 300 8.0 14.5 0.00 0.00 0.00 67 1010.6
20221003035537 15 300 6.4 14.5 0.00 0.00 0.00 66 1010.6
20221003035051 15 300 4.8 9.7 0.00 0.00 0.00 66 1010.5
20221003034556 15 300 3.2 8.0 0.00 0.00 0.00 66 1010.5
20221003034054 15 300 1.6 12.9 0.00 0.00 0.00 66 1010.6
20221003033610 15 300 4.8 12.9 0.00 0.00 0.00 66 1010.7
20221003033046 16 300 6.4 12.9 0.00 0.00 0.00 65 1010.6
20221003032553 16 299 8.0 14.5 0.00 0.00 0.00 66 1010.7
20221003032045 16 300 6.4 14.5 0.00 0.00 0.00 65 1010.8
20221003031546 16 297 6.4 9.7 0.00 0.00 0.00 63 1010.7
20221003031052 16 297 3.2 12.9 0.00 0.00 0.00 63 1010.8
20221003030608 16 297 6.4 12.9 0.00 0.00 0.00 63 1010.8
20221003030043 16 297 4.8 12.9 0.00 0.00 0.00 63 1010.8
20221003025540 16 296 8.0 17.7 0.00 0.00 0.00 63 1010.7
20221003025103 16 297 8.0 17.7 0.00 0.00 0.00 63 1010.7
20221003024541 16 298 11.3 17.7 0.00 0.00 0.00 63 1010.8
20221003024037 16 298 8.0 19.3 0.00 0.00 0.00 63 1010.7
20221003023603 16 296 14.5 19.3 0.00 0.00 0.00 63 1010.7
20221003022535 16 296 6.4 14.5 0.00 0.00 0.00 64 1010.7
20221003022057 16 297 11.3 16.1 0.00 0.00 0.00 64 1010.7
20221003021600 16 297 9.7 16.1 0.00 0.00 0.00 65 1010.8
20221003021035 16 298 12.9 16.1 0.00 0.00 0.00 65 1010.8
20221003020601 16 298 4.8 14.5 0.00 0.00 0.00 65 1010.8
20221003020101 16 298 4.8 12.9 0.00 0.00 0.00 65 1010.9
20221003015540 16 298 1.6 9.7 0.00 0.00 0.00 65 1010.9
20221003015045 16 298 3.2 14.5 0.00 0.00 0.00 65 1011.0
20221003014545 16 298 4.8 14.5 0.00 0.00 0.00 65 1011.2
20221003014042 16 298 6.4 12.9 0.00 0.00 0.00 64 1011.2
20221003013547 16 297 4.8 9.7 0.00 0.00 0.00 64 1011.3
20221003013045 16 297 4.8 14.5 0.00 0.00 0.00 63 1011.5
20221003012544 16 297 8.0 14.5 0.00 0.00 0.00 63 1011.4
20221003012037 16 298 6.4 14.5 0.00 0.00 0.00 63 1011.4
20221003011536 16 297 3.2 16.1 0.00 0.00 0.00 62 1011.3
20221003011102 16 297 6.4 16.1 0.00 0.00 0.00 62 1011.6
20221003010534 17 298 6.4 16.1 0.00 0.00 0.00 62 1011.5
20221003010040 16 302 3.2 12.9 0.00 0.03 0.00 62 1011.5
20221003005539 17 302 4.8 9.7 0.00 0.03 0.00 62 1011.5
20221003005057 17 303 3.2 14.5 0.00 0.03 0.00 62 1011.5
20221003004557 17 304 4.8 14.5 0.00 0.03 0.00 62 1011.5
20221003004038 17 305 6.4 12.9 0.00 0.03 0.00 62 1011.6
20221003003602 17 305 8.0 12.9 0.00 0.03 0.00 62 1011.7
20221003003037 17 305 8.0 14.5 0.00 0.03 0.00 62 1011.9
20221003002536 17 303 6.4 16.1 0.00 0.03 0.00 62 1011.9
20221003002101 17 302 6.4 16.1 0.00 0.03 0.00 62 1012.0
20221003001557 16 302 4.8 14.5 0.00 0.03 0.00 63 1012.1
20221003001055 17 301 4.8 12.9 0.00 0.03 0.00 63 1012.2
20221003000549 17 300 4.8 12.9 0.00 0.03 0.00 63 1012.2
20221003000057 17 300 6.4 9.7 0.00 0.33 0.00 62 1012.2
20221002235536 17 300 6.4 9.7 0.00 0.33 0.00 62 1012.4
20221002235122 17 300 3.2 8.0 0.00 0.33 0.00 62 1012.4
20221002234558 17 300 3.2 8.0 0.00 0.33 0.00 62 1012.6
20221002234036 17 300 0.0 9.7 0.00 0.33 0.00 63 1012.7
20221002233623 17 300 4.8 9.7 0.00 0.33 0.00 62 1012.7
20221002233059 17 300 3.2 6.4 0.00 0.33 0.00 62 1012.7
20221002232538 17 300 3.2 8.0 0.00 0.33 0.00 62 1012.8
20221002232051 17 300 3.2 8.0 0.00 0.33 0.00 62 1012.8
20221002231600 17 300 1.6 8.0 0.00 0.33 0.00 62 1012.8
20221002231040 17 300 3.2 16.1 0.00 0.33 0.00 62 1012.8
20221002230536 17 300 8.0 16.1 0.00 0.33 0.00 62 1012.8
20221002230036 17 302 8.0 16.1 0.00 0.33 0.00 63 1012.8
20221002225537 17 302 8.0 17.7 0.00 0.33 0.00 63 1012.9
20221002225103 17 299 9.7 17.7 0.00 0.33 0.00 63 1012.8
20221002224540 17 298 8.0 16.1 0.00 0.33 0.00 63 1012.9
20221002224039 17 297 11.3 19.3 0.00 0.33 0.00 63 1013.0
20221002223534 17 290 9.7 17.7 0.00 0.33 0.00 63 1013.0
20221002223102 17 292 9.7 19.3 0.00 0.33 0.00 63 1013.0
20221002222603 17 300 8.0 19.3 0.00 0.33 0.00 63 1013.1
20221002222055 18 302 9.7 19.3 0.00 0.33 0.00 62 1013.1
20221002221541 18 299 9.7 17.7 0.00 0.33 0.00 62 1013.1
20221002221038 18 300 9.7 17.7 0.00 0.33 0.00 62 1013.2
20221002220536 18 301 11.3 19.3 0.00 0.33 0.00 62 1013.2
20221002220105 18 300 11.3 25.7 0.00 1.02 0.00 62 1013.2
20221002215545 18 300 16.1 25.7 0.00 1.02 0.00 62 1013.2
20221002215037 18 301 8.0 17.7 0.00 1.02 0.00 62 1013.2
20221002214536 18 303 11.3 24.1 0.00 1.02 0.00 63 1013.3
20221002214044 18 302 14.5 24.1 0.00 1.02 0.00 63 1013.2
20221002213600 18 297 12.9 20.9 0.00 1.02 0.00 63 1013.3
20221002213035 18 290 11.3 20.9 0.00 1.02 0.00 64 1013.3
20221002212538 18 297 9.7 19.3 0.00 1.02 0.00 64 1013.4
20221002212111 18 280 9.7 19.3 0.00 1.02 0.00 64 1013.4
20221002211559 18 282 11.3 19.3 0.00 1.02 0.00 64 1013.4
20221002211100 18 274 12.9 19.3 0.00 1.02 0.00 64 1013.4
20221002210536 18 275 9.7 20.9 0.00 1.02 0.00 64 1013.5
20221002210050 18 273 12.9 20.9 0.00 1.02 1.02 64 1013.5
20221002205620 18 273 14.5 20.9 0.00 1.02 1.02 64 1013.5
20221002205051 18 276 12.9 20.9 0.00 1.02 1.02 63 1013.5
20221002204547 18 278 9.7 24.1 0.00 1.02 1.02 63 1013.5
20221002204043 18 274 16.1 24.1 0.00 1.02 1.02 64 1013.5
20221002203607 18 274 9.7 22.5 0.00 1.02 1.02 65 1013.6
20221002203102 18 275 12.9 22.5 0.00 1.02 1.02 64 1013.7
20221002202541 18 287 9.7 17.7 0.00 1.02 1.02 64 1013.8
20221002202045 18 280 9.7 20.9 0.00 1.02 1.02 63 1013.8
20221002201542 18 280 9.7 20.9 0.00 1.02 1.02 63 1013.9
20221002201039 18 283 11.3 19.3 0.00 1.02 1.02 63 1014.0
20221002200604 18 294 11.3 19.3 0.00 1.02 1.02 63 1014.0
20221002200034 18 275 12.9 22.5 0.00 1.02 1.02 64 1014.0
20221002195541 18 273 16.1 22.5 0.00 1.02 1.02 64 1014.1
20221002195104 18 272 12.9 19.3 0.00 1.02 1.02 64 1014.1
20221002194541 18 278 11.3 17.7 0.00 1.02 1.02 64 1013.9
20221002194100 18 284 8.0 22.5 0.00 1.02 1.02 64 1014.0
20221002193539 18 287 9.7 22.5 0.00 1.02 1.02 64 1013.9
20221002193056 18 282 9.7 19.3 0.00 1.02 1.02 64 1013.9
20221002192548 18 277 12.9 19.3 0.00 1.02 1.02 63 1014.0
20221002192049 18 295 11.3 17.7 0.00 1.02 1.02 63 1014.0
20221002191545 18 292 8.0 17.7 0.00 1.02 1.02 63 1014.1
20221002191059 18 284 8.0 16.1 0.00 1.02 1.02 62 1014.0
20221002190544 18 284 9.7 16.1 0.00 1.02 1.02 63 1014.2
20221002190041 18 289 8.0 16.1 0.00 1.02 1.02 63 1014.1
20221002185602 19 290 8.0 16.1 0.00 1.02 1.02 62 1014.2
20221002185038 19 290 4.8 16.1 0.00 1.02 1.02 62 1014.2
20221002184556 19 292 8.0 16.1 0.00 1.02 1.02 62 1014.1
20221002184105 19 295 8.0 16.1 0.00 1.02 1.02 62 1014.1
20221002183549 19 298 11.3 16.1 0.00 1.02 1.02 62 1014.2
20221002183053 19 296 9.7 14.5 0.00 1.02 1.02 62 1014.1
20221002182545 19 298 6.4 14.5 0.00 1.02 1.02 62 1014.2
20221002182114 20 298 8.0 12.9 0.00 1.02 1.02 62 1014.2
20221002181536 20 296 6.4 12.9 0.00 1.02 1.02 61 1014.2
20221002181109 20 294 6.4 12.9 0.00 1.02 1.02 60 1014.2
20221002180609 20 293 4.8 14.5 0.00 1.02 1.02 60 1014.2
20221002180102 20 293 8.0 14.5 0.00 1.02 1.02 60 1014.3
20221002175609 20 291 8.0 22.5 0.00 1.02 1.02 60 1014.2
20221002175051 20 271 11.3 22.5 0.00 1.02 1.02 59 1014.1
20221002174541 21 1 8.0 14.5 0.00 1.02 1.02 57 1014.1
20221002174100 21 19 4.8 9.7 0.00 1.02 1.02 56 1014.1
20221002173619 21 20 3.2 9.7 0.00 1.02 1.02 55 1014.0
20221002173043 21 22 0.0 6.4 0.00 1.02 1.02 55 1013.9
20221002172558 21 22 1.6 9.7 0.00 1.02 1.02 56 1013.9
20221002172125 21 22 1.6 9.7 0.00 1.02 1.02 57 1013.9
20221002171559 21 27 3.2 8.0 0.00 1.02 1.02 57 1013.9
20221002171106 21 31 1.6 8.0 0.00 1.02 1.02 57 1013.9
20221002170538 21 32 1.6 8.0 0.00 1.02 1.02 56 1013.8
20221002170111 21 32 1.6 8.0 0.00 1.02 1.02 56 1013.8
20221002165553 21 32 1.6 6.4 0.00 1.02 1.02 54 1013.7
20221002165117 22 32 1.6 6.4 0.00 1.02 1.02 54 1013.6
20221002164552 22 32 1.6 4.8 0.00 1.02 1.02 54 1013.5
20221002164057 22 32 0.0 4.8 0.00 1.02 1.02 55 1013.4
20221002163548 21 32 1.6 6.4 0.00 1.02 1.02 55 1013.2
20221002163043 21 32 0.0 9.7 0.00 1.02 1.02 56 1013.2
20221002162544 22 32 3.2 9.7 0.00 1.02 1.02 56 1013.2
20221002162109 22 34 6.4 9.7 0.00 1.02 1.02 55 1013.4
20221002161547 22 44 4.8 9.7 0.00 1.02 1.02 55 1013.4
20221002161041 22 45 3.2 9.7 0.00 1.02 1.02 54 1013.4
20221002160547 22 49 0.0 9.7 0.00 1.02 1.02 54 1013.4
20221002160035 23 49 1.6 9.7 0.00 1.02 1.02 53 1013.4
20221002155553 23 49 1.6 4.8 0.00 1.02 1.02 53 1013.3
20221002155101 23 49 0.0 6.4 0.00 1.02 1.02 52 1013.3
20221002154553 23 49 1.6 6.4 0.00 1.02 1.02 51 1013.3
20221002154050 24 49 1.6 8.0 0.00 1.02 1.02 50 1013.3
20221002153548 25 49 6.4 8.0 0.00 1.02 1.02 48 1013.3
20221002153112 25 49 0.0 4.8 0.00 1.02 1.02 47 1013.3
20221002152549 25 49 1.6 6.4 0.00 1.02 1.02 46 1013.3
20221002152044 25 49 1.6 6.4 0.00 1.02 1.02 44 1013.4
20221002151539 25 49 1.6 8.0 0.00 1.02 1.02 44 1013.3
20221002151039 25 49 3.2 8.0 0.00 1.02 1.02 44 1013.4
20221002150538 25 48 0.0 9.7 0.00 1.02 1.02 44 1013.3
20221002150052 25 48 3.2 11.3 0.00 1.02 1.02 43 1013.3
20221002145539 25 47 4.8 11.3 0.00 1.02 1.02 43 1013.4
20221002145052 25 46 8.0 11.3 0.00 1.02 1.02 42 1013.2
20221002144556 26 49 4.8 9.7 0.00 1.02 1.02 43 1013.3
20221002144053 26 49 3.2 16.1 0.00 1.02 1.02 42 1013.3
20221002143038 26 52 4.8 12.9 0.00 1.02 1.02 41 1013.2
20221002142542 26 54 4.8 12.9 0.00 1.02 1.02 41 1013.3
20221002142039 26 60 1.6 12.9 0.00 1.02 1.02 41 1013.1
20221002141624 26 60 4.8 16.1 0.00 1.02 1.02 41 1013.2
20221002141100 26 65 8.0 16.1 0.00 1.02 1.02 40 1013.0
20221002140622 26 64 1.6 14.5 0.00 1.02 1.02 40 1013.0
20221002140038 26 63 6.4 14.5 0.00 1.02 1.02 40 1013.2
20221002135624 26 68 0.0 12.9 0.00 1.02 1.02 41 1013.1
20221002135036 26 69 6.4 12.9 0.00 1.02 1.02 41 1013.1
20221002134553 26 63 3.2 19.3 0.00 1.02 1.02 41 1013.1
20221002134104 26 57 6.4 19.3 0.00 1.02 1.02 40 1013.1
20221002133558 26 70 3.2 14.5 0.00 1.02 1.02 40 1013.0
20221002133052 26 58 6.4 14.5 0.00 1.02 1.02 40 1013.1
20221002132549 26 55 4.8 14.5 0.00 1.02 1.02 39 1013.2
20221002132043 26 59 6.4 14.5 0.00 1.02 1.02 39 1013.1
20221002131543 26 62 1.6 9.7 0.00 1.02 1.02 40 1013.2
20221002131049 26 55 0.0 8.0 0.00 1.02 1.02 40 1013.2
20221002130548 26 53 0.0 16.1 0.00 1.02 1.02 40 1013.2
20221002130037 26 51 6.4 16.1 0.00 1.02 1.02 40 1013.2
20221002125535 26 66 3.2 14.5 0.00 1.02 1.02 40 1013.1
20221002125100 26 69 4.8 16.1 0.00 1.02 1.02 40 1013.2
20221002124115 26 35 1.6 19.3 0.00 1.02 1.02 40 1013.1
20221002123547 26 45 6.4 19.3 0.00 1.02 1.02 40 1013.2
20221002123115 26 38 4.8 16.1 0.00 1.02 1.02 40 1013.3
20221002122548 26 40 3.2 19.3 0.00 1.02 1.02 40 1013.2
20221002122042 26 58 11.3 20.9 0.00 1.02 1.02 39 1013.2
20221002121536 26 71 8.0 20.9 0.00 1.02 1.02 40 1013.1
20221002121043 26 58 3.2 16.1 0.00 1.02 1.02 40 1013.3
20221002120557 26 64 4.8 16.1 0.00 1.02 1.02 41 1013.2
20221002120103 26 65 6.4 22.5 0.00 1.02 1.02 40 1013.2
20221002115604 26 46 11.3 22.5 0.00 1.02 1.02 41 1013.3
20221002115053 25 53 4.8 14.5 0.00 1.02 1.02 42 1013.3
20221002114548 25 37 6.4 17.7 0.00 1.02 1.02 42 1013.4
20221002114052 25 29 8.0 19.3 0.00 1.02 1.02 42 1013.5
20221002113605 25 38 4.8 19.3 0.00 1.02 1.02 42 1013.5
20221002113040 25 40 6.4 16.1 0.00 1.02 1.02 42 1013.7
20221002112537 25 59 4.8 19.3 0.00 1.02 1.02 42 1013.7
20221002112038 25 53 8.0 19.3 0.00 1.02 1.02 43 1013.7
20221002111554 25 29 9.7 19.3 0.00 1.02 1.02 43 1013.7
20221002111101 25 32 4.8 17.7 0.00 1.02 1.02 44 1013.7
20221002110614 25 29 1.6 19.3 0.00 1.02 1.02 45 1013.7
20221002110053 25 28 9.7 20.9 0.00 1.02 1.02 44 1013.7
20221002105558 25 40 3.2 20.9 0.00 1.02 1.02 45 1013.9
20221002105051 25 84 6.4 19.3 0.00 1.02 1.02 44 1014.0
20221002104549 25 72 4.8 24.1 0.00 1.02 1.02 45 1014.0
20221002104045 25 38 4.8 17.7 0.00 1.02 1.02 45 1014.0
20221002103535 25 56 9.7 19.3 0.00 1.02 1.02 45 1014.0
20221002103100 25 72 6.4 19.3 0.00 1.02 1.02 45 1014.0
20221002102536 24 40 11.3 19.3 0.00 1.02 1.02 46 1014.2
20221002102101 24 65 8.0 24.1 0.00 1.02 1.02 47 1014.3
20221002101601 24 38 1.6 24.1 0.00 1.02 1.02 48 1014.3
20221002101036 24 70 6.4 24.1 0.00 1.02 1.02 48 1014.3
20221002100601 24 43 8.0 24.1 0.00 1.02 1.02 49 1014.3
20221002100059 24 63 11.3 24.1 0.00 1.02 1.02 48 1014.4
20221002095536 24 38 9.7 22.5 0.00 1.02 1.02 49 1014.2
20221002095048 24 64 6.4 22.5 0.00 1.02 1.02 49 1014.4